Wind_Speed
13 13 13 13 13 13 13 12 11 9 7 6 4 4 5 5 6 6 6 8 8 9 10 9 8 6 4 5 6 7 7 11 13 14 10 14 12 13 12 9 7 6 9 10 12
14 14 13 13 13 12 12 12 11 9 8 7 5 5 5 5 6 6 6 6 7 8 9 9 7 5 4 5 5 5 8 8 9 9 11 10 12 11 14 12 10 8 9 11 12
16 16 14 13 13 13 12 11 11 10 8 7 7 6 6 6 6 9 6 6 7 8 7 7 8 6 6 7 6 6 9 7 9 9 11 10 13 18 15 13 10 10 12 11 12
19 18 16 15 14 13 13 11 11 10 9 8 8 8 8 6 2 6 6 7 8 8 7 7 7 5 6 7 8 9 9 10 8 12 15 13 12 15 18 16 10 14 14 10 13
21 19 16 16 16 14 13 12 11 10 9 9 9 9 9 9 11 10 9 9 8 7 6 6 4 6 5 7 9 12 10 12 10 13 15 17 19 17 18 19 19 20 19 16 14
20 19 17 17 16 14 14 13 11 10 9 9 10 10 10 11 12 12 10 9 8 7 7 6 6 6 8 8 8 10 12 12 13 14 15 19 19 19 23 21 23 24 23 23 19
20 19 18 18 15 14 14 14 11 10 10 9 9 10 11 13 12 12 11 10 9 9 9 9 7 7 8 7 8 7 10 11 12 13 14 19 22 25 21 19 22 24 27 26 23
20 19 18 17 15 13 13 14 12 11 9 9 9 10 11 12 13 13 13 13 10 10 10 10 9 8 9 10 10 8 9 6 5 8 11 12 20 11 12 16 20 22 25 26 26
18 17 17 16 15 12 12 13 12 11 9 9 9 9 12 11 12 12 12 13 11 10 10 9 9 9 9 7 8 8 7 7 7 10 11 16 19 11 12 15 16 19 22 24 26
16 16 16 15 15 13 12 11 11 10 9 9 9 8 11 11 9 8 8 9 8 8 9 8 9 6 7 5 10 7 10 10 10 10 15 19 28 23 21 23 24 23 22 23 25
14 14 14 13 13 12 11 10 11 10 7 7 9 10 10 8 9 9 9 8 8 7 6 11 6 8 8 9 11 10 10 12 13 14 23 19 24 24 22 24 25 24 24 23 23
13 13 13 12 11 11 9 9 9 9 10 11 13 13 14 13 10 9 8 7 8 6 11 9 9 12 12 12 10 9 12 12 14 15 22 18 17 14 10 13 21 20 21 21 21
15 14 13 12 11 9 8 8 7 9 10 10 10 10 13 13 14 15 11 12 11 10 10 11 11 16 15 10 10 10 12 13 15 18 14 19 5 9 14 15 4 12 16 20 20
15 15 15 13 10 9 8 8 8 10 3 5 4 3 3 8 12 15 14 13 12 8 10 10 14 9 7 8 8 11 13 14 14 13 10 14 3 13 7 15 7 2 7 15 20
14 14 14 14 14 11 10 8 7 8 4 4 3 4 3 5 3 3 6 10 11 10 11 8 13 12 10 10 10 8 14 14 17 15 13 3 4 10 12 18 18 13 4 5 14
14 13 13 12 12 11 10 9 7 2 2 3 3 2 2 4 7 5 4 6 8 11 12 11 18 16 11 15 11 14 16 16 14 6 6 3 2 9 6 12 16 18 13 4 5
14 13 12 11 11 10 9 6 3 5 4 3 4 4 4 5 6 7 7 6 2 7 3 8 10 12 9 10 10 9 8 5 5 5 4 2 4 3 8 13 18 19 19 17 8
14 14 12 11 10 9 7 2 5 6 5 5 3 3 2 6 7 7 5 3 8 7 10 6 6 3 2 3 4 2 3 6 4 4 5 7 4 6 14 15 16 16 17 18 14
14 13 12 11 10 9 6 3 4 7 9 8 6 5 6 8 8 4 4 5 9 5 5 6 4 6 5 5 2 3 1 6 6 6 5 3 3 8 15 10 9 10 14 11 15
15 14 12 10 8 8 7 7 11 11 11 6 2 4 3 4 3 3 5 8 8 8 8 4 7 9 10 7 8 8 6 3 4 3 4 6 5 5 17 6 3 13 14 13 15
16 15 11 10 8 7 5 13 16 17 15 9 7 6 5 5 8 5 4 9 8 9 8 7 6 5 9 5 4 4 5 6 6 4 3 4 5 5 13 11 9 15 16 19 20
17 14 14 12 7 7 6 16 14 15 14 14 14 14 10 8 6 6 5 13 6 7 7 9 7 12 12 13 15 13 8 10 9 4 7 3 6 5 9 7 18 21 20 25 29
20 17 12 9 3 4 12 13 15 15 15 11 11 12 15 11 6 11 11 17 16 14 8 8 7 9 7 10 6 8 8 12 11 10 14 8 4 4 0 15 24 27 29 35 36
18 14 14 12 9 10 9 10 9 14 15 14 14 14 16 9 11 8 6 12 16 17 15 13 13 14 19 11 7 5 5 7 8 13 17 22 21 21 24 29 33 36 43 46 44
16 13 10 10 11 11 9 9 8 9 11 12 12 14 12 6 10 12 14 15 15 19 17 15 15 17 20 17 18 21 23 22 23 23 26 25 26 23 29 41 46 46 49 46 42
12 11 12 12 10 10 10 10 11 12 11 8 12 13 13 11 12 16 19 12 11 13 18 20 18 17 26 24 26 33 31 31 33 32 36 33 38 32 39 44 42 38 43 40 30
14 12 10 11 9 6 9 11 12 12 13 13 15 15 12 13 21 23 26 27 28 27 25 22 13 15 29 21 23 26 21 19 27 30 33 32 25 32 32 36 37 33 33 31 28
Wind_Direction
338 335 334 330 330 329 331 334 327 320 307 291 279 271 269 273 284 298 308 304 311 320 327 331 333 333 305 289 265 242 234 242 234 230 226 241 235 238 236 252 266 280 241 231 210
335 335 334 332 332 332 330 331 326 318 306 289 270 262 266 274 287 291 298 290 312 325 332 341 332 311 290 273 274 222 247 247 239 229 226 255 228 249 239 253 256 270 266 242 223
329 326 324 327 329 330 329 327 323 315 304 290 275 264 259 269 287 281 279 283 312 319 336 343 333 321 260 263 259 262 239 266 247 246 245 246 244 240 246 236 241 261 275 253 237
319 319 316 318 321 324 326 324 319 312 302 288 279 271 268 259 217 255 280 294 305 318 335 344 340 306 278 262 259 263 272 257 253 258 237 245 254 248 245 237 244 230 245 260 253
311 313 310 312 313 315 319 321 317 309 302 289 280 276 268 266 257 269 278 284 297 311 326 332 331 283 288 278 272 269 266 265 261 257 254 252 250 257 251 249 239 245 248 262 257
303 305 306 309 308 308 309 315 315 308 298 290 282 276 271 269 270 271 274 280 284 296 307 311 305 279 269 279 266 272 269 267 263 263 266 264 262 257 254 253 248 251 246 255 252
301 301 303 305 308 307 305 307 311 311 301 288 282 278 272 262 271 273 275 278 280 290 296 294 298 298 282 297 282 298 297 288 268 267 264 276 267 260 271 257 246 249 254 249 249
301 301 301 302 309 310 303 303 307 305 303 295 281 275 273 272 271 273 276 277 281 289 294 294 295 298 295 287 295 297 285 298 259 280 278 268 275 267 277 252 252 246 245 249 249
303 302 301 303 308 310 299 301 304 300 298 297 287 274 267 273 266 267 270 275 283 288 296 300 301 303 305 310 296 258 300 302 300 300 269 282 283 281 268 265 262 251 246 246 249
307 305 304 308 308 309 304 299 301 299 295 293 284 270 259 263 268 271 263 269 275 291 301 306 312 307 298 277 304 311 298 298 297 296 295 283 285 288 280 267 262 252 247 248 245
311 310 310 311 311 312 310 304 300 296 290 284 273 257 266 265 268 259 262 264 275 283 280 292 288 271 274 267 268 284 291 294 301 294 290 298 295 299 285 262 253 249 245 242 247
311 311 312 317 318 320 320 314 304 291 292 281 274 265 258 259 255 252 258 262 269 270 270 292 282 261 283 280 287 282 289 299 309 325 316 318 329 349 326 271 250 249 245 242 238
307 307 307 311 316 319 328 331 327 316 302 284 276 269 257 248 244 253 257 259 267 265 270 264 280 272 286 281 292 286 286 295 296 313 324 322 80 48 43 33 9 246 244 235 231
303 302 303 304 306 308 315 322 330 329 283 294 282 277 264 239 246 256 254 257 273 263 267 277 257 281 294 291 278 283 269 294 308 321 318 327 317 65 50 25 19 347 239 231 228
307 302 299 298 302 302 303 307 323 334 286 268 267 268 274 208 248 267 254 261 256 260 278 263 278 282 285 278 275 272 283 301 301 292 300 192 243 84 31 51 55 58 43 244 237
310 306 303 298 294 295 296 302 313 319 195 257 255 257 281 251 250 258 269 281 289 284 279 272 263 279 269 271 276 275 300 295 286 281 230 158 290 49 50 70 72 69 64 57 237
310 306 303 299 294 291 295 301 331 246 250 270 256 254 257 263 274 270 280 287 291 315 265 299 281 290 281 290 298 289 296 284 214 207 36 190 317 62 100 102 88 68 53 46 33
312 308 303 299 293 287 283 276 244 251 238 247 249 273 239 275 278 271 274 290 293 257 297 295 263 296 303 238 216 251 240 304 300 325 339 298 216 162 128 116 89 45 37 32 35
310 307 306 301 293 278 265 238 273 248 260 256 273 276 255 262 243 269 230 234 251 245 250 308 253 297 279 282 253 243 200 248 285 268 272 188 164 166 150 126 58 8 5 22 16
310 309 303 299 286 271 236 241 250 250 253 254 299 249 254 272 256 252 230 254 244 239 234 260 293 278 294 283 261 219 236 263 201 279 270 169 205 184 163 148 266 359 325 335 340
315 310 303 300 288 252 219 236 258 259 258 249 247 261 270 268 248 264 251 266 250 249 243 249 255 268 301 269 253 252 241 232 242 246 295 312 86 129 168 205 357 349 316 318 312
316 313 307 302 285 248 231 243 253 258 262 254 257 256 252 267 279 266 255 237 258 248 239 241 254 263 269 260 259 239 235 234 250 202 237 274 274 198 210 249 341 314 310 312 319
317 314 304 295 202 270 261 265 260 259 259 254 246 250 259 255 268 252 259 257 255 254 241 247 250 281 234 267 287 248 241 240 247 260 244 252 201 292 345 314 302 295 295 306 309
315 311 305 293 269 253 261 271 269 268 269 265 257 259 258 264 259 256 274 265 255 252 252 255 250 257 275 310 274 276 258 257 248 254 254 244 257 267 294 294 286 293 298 304 307
312 307 295 283 277 269 260 263 271 272 275 270 283 262 266 271 268 262 259 265 277 257 256 260 264 265 268 270 280 279 275 270 261 256 258 265 268 277 287 278 284 292 292 296 303
315 308 297 288 281 272 269 273 258 268 266 283 267 274 271 266 275 273 271 281 279 267 268 267 269 278 273 278 279 277 273 270 263 261 262 266 271 277 268 275 281 287 291 298 298
317 307 302 294 286 266 256 258 269 269 284 268 275 286 289 270 260 264 270 272 274 275 279 278 277 286 278 279 281 278 275 274 272 264 261 263 267 251 259 265 274 282 290 288 287
Height
3174 3173 3171 3169 3167 3165 3163 3162 3161 3159 3159 3158 3158 3158 3158 3158 3158 3158 3157 3158 3157 3155 3154 3153 3152 3151 3151 3151 3151 3151 3155 3154 3154 3156 3157 3154 3156 3156 3157 3158 3158 3157 3157 3157 3158
3174 3172 3170 3168 3166 3164 3162 3161 3160 3159 3158 3158 3157 3157 3157 3157 3157 3157 3157 3156 3156 3154 3153 3152 3151 3151 3153 3152 3151 3151 3153 3153 3153 3154 3155 3154 3154 3156 3156 3156 3157 3156 3156 3156 3157
3173 3171 3169 3167 3165 3163 3161 3160 3159 3158 3157 3157 3156 3156 3156 3156 3156 3155 3155 3155 3155 3154 3152 3151 3151 3151 3152 3151 3152 3152 3151 3151 3151 3151 3151 3152 3151 3152 3153 3155 3156 3156 3153 3154 3155
3171 3169 3167 3166 3164 3162 3160 3159 3157 3156 3156 3155 3155 3155 3155 3155 3159 3154 3154 3154 3153 3152 3152 3151 3150 3151 3151 3151 3150 3149 3150 3149 3149 3148 3147 3148 3150 3148 3150 3153 3155 3154 3154 3153 3154
3169 3167 3165 3163 3162 3160 3159 3157 3156 3155 3154 3154 3154 3154 3154 3154 3153 3152 3152 3152 3152 3152 3151 3151 3150 3151 3150 3150 3148 3147 3148 3146 3145 3144 3145 3145 3144 3146 3147 3148 3150 3150 3151 3151 3152
3165 3164 3162 3161 3159 3158 3157 3156 3154 3153 3152 3152 3152 3152 3152 3153 3152 3151 3150 3150 3150 3150 3150 3150 3149 3149 3148 3147 3146 3146 3144 3143 3143 3142 3142 3141 3141 3142 3141 3144 3145 3146 3147 3148 3149
3162 3160 3159 3158 3157 3156 3154 3153 3153 3151 3150 3150 3150 3150 3150 3151 3149 3149 3149 3149 3149 3149 3149 3148 3148 3148 3146 3146 3144 3142 3141 3141 3141 3141 3140 3139 3137 3135 3138 3138 3140 3141 3142 3144 3145
3159 3157 3155 3154 3154 3153 3152 3151 3150 3149 3148 3148 3148 3147 3147 3148 3147 3147 3148 3147 3147 3147 3147 3147 3146 3146 3145 3144 3142 3141 3142 3141 3139 3139 3137 3137 3132 3135 3136 3135 3135 3137 3137 3138 3140
3155 3153 3152 3151 3150 3150 3149 3148 3148 3147 3146 3146 3146 3145 3145 3145 3145 3145 3146 3146 3146 3146 3145 3145 3145 3144 3144 3143 3144 3142 3140 3140 3140 3137 3136 3134 3130 3132 3131 3131 3130 3131 3132 3134 3135
3153 3151 3149 3148 3147 3147 3146 3146 3145 3145 3144 3143 3143 3146 3144 3143 3143 3143 3143 3144 3144 3144 3144 3144 3143 3143 3144 3145 3142 3141 3140 3139 3139 3138 3132 3131 3124 3126 3127 3126 3125 3126 3127 3128 3130
3150 3148 3146 3145 3145 3144 3144 3143 3145 3144 3142 3141 3142 3141 3141 3141 3141 3141 3142 3142 3143 3143 3144 3143 3143 3144 3144 3142 3140 3140 3139 3138 3136 3135 3129 3126 3121 3119 3119 3118 3118 3119 3122 3124 3125
3148 3147 3145 3143 3143 3142 3141 3141 3141 3142 3140 3138 3138 3138 3138 3139 3140 3140 3141 3143 3142 3143 3142 3143 3141 3141 3139 3138 3137 3137 3137 3136 3134 3130 3126 3121 3117 3115 3112 3109 3111 3114 3117 3120 3123
3147 3145 3143 3142 3142 3141 3140 3140 3139 3138 3138 3136 3135 3134 3136 3137 3137 3137 3140 3139 3140 3141 3142 3141 3141 3137 3136 3136 3136 3136 3135 3134 3132 3127 3125 3121 3118 3117 3114 3111 3109 3111 3113 3115 3119
3145 3143 3142 3141 3143 3140 3139 3139 3138 3137 3135 3136 3134 3133 3134 3134 3135 3135 3136 3139 3138 3139 3138 3137 3135 3134 3133 3134 3134 3133 3131 3130 3128 3128 3126 3124 3120 3117 3118 3113 3110 3109 3110 3112 3114
3142 3141 3140 3139 3139 3139 3139 3137 3137 3137 3134 3137 3134 3133 3133 3134 3135 3134 3134 3134 3135 3137 3137 3137 3133 3132 3132 3133 3131 3133 3129 3127 3126 3125 3125 3122 3122 3119 3117 3114 3111 3110 3109 3110 3111
3140 3139 3138 3137 3136 3136 3136 3136 3137 3139 3133 3134 3132 3132 3133 3133 3133 3133 3133 3134 3133 3132 3131 3131 3130 3129 3129 3128 3128 3127 3126 3124 3123 3123 3120 3119 3120 3117 3117 3116 3114 3112 3109 3108 3108
3137 3136 3135 3134 3134 3133 3133 3135 3138 3135 3134 3133 3131 3131 3132 3133 3132 3132 3132 3133 3135 3134 3132 3130 3127 3125 3126 3126 3125 3125 3127 3122 3118 3117 3112 3116 3118 3118 3116 3115 3113 3112 3111 3109 3108
3135 3134 3133 3132 3132 3132 3132 3134 3136 3132 3131 3130 3131 3131 3132 3131 3131 3130 3131 3133 3131 3131 3131 3130 3126 3125 3125 3126 3127 3126 3127 3125 3121 3113 3114 3114 3114 3116 3116 3114 3113 3112 3111 3110 3108
3133 3132 3131 3130 3130 3130 3132 3134 3132 3130 3129 3129 3130 3130 3131 3129 3131 3130 3130 3130 3129 3129 3132 3129 3126 3124 3124 3124 3126 3125 3126 3125 3125 3121 3119 3111 3114 3115 3115 3114 3113 3112 3110 3108 3107
3130 3129 3129 3128 3127 3129 3131 3131 3128 3127 3127 3128 3130 3129 3131 3129 3130 3129 3128 3126 3126 3126 3126 3128 3126 3122 3122 3122 3123 3123 3124 3125 3123 3120 3113 3107 3109 3108 3113 3116 3114 3112 3107 3106 3105
3128 3126 3126 3126 3126 3126 3129 3127 3124 3124 3126 3128 3127 3128 3128 3127 3127 3128 3127 3124 3124 3124 3124 3125 3126 3123 3121 3120 3122 3121 3122 3122 3122 3121 3115 3109 3107 3110 3113 3111 3112 3109 3104 3103 3101
3125 3125 3124 3123 3125 3124 3124 3121 3122 3121 3122 3123 3124 3124 3124 3125 3125 3126 3125 3121 3121 3121 3122 3122 3121 3120 3120 3117 3117 3117 3119 3120 3119 3118 3117 3116 3112 3110 3110 3111 3110 3104 3101 3098 3100
3123 3122 3121 3120 3122 3121 3119 3119 3118 3118 3117 3118 3119 3119 3120 3122 3125 3120 3118 3118 3119 3119 3118 3118 3119 3117 3113 3114 3112 3113 3114 3115 3115 3115 3114 3114 3109 3107 3108 3110 3102 3098 3095 3096 3096
3119 3119 3118 3118 3118 3118 3117 3116 3117 3115 3114 3115 3115 3116 3116 3119 3119 3118 3116 3115 3115 3115 3116 3116 3116 3116 3114 3115 3112 3111 3112 3112 3112 3112 3109 3107 3108 3106 3104 3098 3095 3092 3091 3089 3088
3114 3113 3113 3114 3114 3115 3116 3115 3113 3113 3113 3112 3111 3112 3113 3115 3115 3116 3111 3111 3112 3111 3112 3113 3110 3112 3111 3110 3109 3108 3107 3107 3106 3106 3104 3103 3102 3104 3099 3090 3090 3088 3086 3086 3084
3110 3112 3109 3110 3110 3111 3111 3110 3109 3109 3110 3110 3110 3109 3110 3111 3111 3107 3106 3109 3108 3106 3107 3108 3105 3106 3103 3105 3104 3099 3099 3099 3097 3097 3094 3096 3091 3098 3087 3084 3082 3082 3079 3080 3079
3106 3106 3106 3106 3107 3109 3107 3105 3106 3106 3105 3105 3105 3105 3106 3104 3102 3101 3101 3101 3101 3102 3104 3103 3103 3102 3091 3099 3097 3090 3089 3087 3085 3087 3087 3088 3087 3078 3078 3078 3077 3077 3074 3072 3072